Miscellaneous Local Product
Issued by NWS Hastings, NE

Home | Current Version | Previous Version | Graphics & Text | Print | Product List | Glossary On
Versions: 1 2 3 4 5 6 7 8 9 10 11 12 13 14 15 16 17 18 19 20 21 22 23 24 25 26 27 28 29 30 31 32 33 34 35 36 37 38 39 40 41 42 43 44 45 46 47 48 49 50
891
AXUS43 KGID 222002
MISGRI

GID CWA HOURLY WEATHER ROUNDUP
NATIONAL WEATHER SERVICE HASTINGS NE
300 PM CDT FRI JUL 22 2016

NOTE: "FAIR" INDICATES FEW OR NO CLOUDS BELOW 12,000 FEET WITH NO
SIGNIFICANT WEATHER AND/OR OBSTRUCTIONS TO VISIBILITY.

...SOUTH CENTRAL NEBRASKA...

CITY           SKY/WX    TMP DP  RH WIND       PRES   REMARKS
GRAND ISLAND   CLOUDY    97  77  52 S7        29.96F HX 112
HASTINGS       CLOUDY    87  72  60 VRB5      29.99S HX  93
KEARNEY        CLOUDY    95  73  49 SE5       29.99F HX 105
ORD            SUNNY     96  75  50 E8        29.96F HX 108
YORK           CLOUDY    90  77  66 S10       29.96F HX 102
AURORA         CLOUDY    93  78  61 S8        29.96F HX 109
LEXINGTON      CLOUDY    95  75  53 SE6       30.00F HX 106
HOLDREGE       PTSUNNY   89  71  55 CALM      29.99F HX  94
HEBRON         TSTM      78  68  70 S8G21     29.96F

...NEBRASKA PANHANDLE...

CITY           SKY/WX    TMP DP  RH WIND       PRES   REMARKS
CHADRON        CLOUDY    99  47  17 SE18      29.99F HX  95
ALLIANCE       MOSUNNY   97  60  29 SE15      30.07F HX  97
SCOTTSBLUFF    MOSUNNY   95  66  38 E7        30.06F HX  98
SIDNEY         MOSUNNY   97  59  28 SE18G25   30.13F HX  96

...WESTERN AND NORTH CENTRAL NEBRASKA...

CITY           SKY/WX    TMP DP  RH WIND       PRES   REMARKS
VALENTINE      CLOUDY    96  56  26 E13       30.03F HX  94
AINSWORTH      SUNNY     93  71  48 E8        30.03F HX 100
ONEILL         MOSUNNY   94  74  51 NE12      29.98F HX 104
BROKEN BOW     SUNNY     92  76  59 E9        30.01F HX 104
IMPERIAL       MOSUNNY   98  62  30 NE10      30.04F HX  99
NORTH PLATTE   SUNNY     96  74  48 SE8       30.02F HX 107
MCCOOK         MOSUNNY  100  68  35 E8        29.99F HX 105

...EASTERN NEBRASKA...

CITY           SKY/WX    TMP DP  RH WIND       PRES   REMARKS
NORFOLK        MOSUNNY   91  76  61 E9        29.94F HX 103
SO SIOUX CITY  SUNNY     95  77  55 SE13      29.93F HX 109
TEKAMAH        SUNNY     92  77  61 SE9       29.93F HX 105
COLUMBUS       SUNNY     91  73  55 S9G16     29.96S HX 100
ALBION         SUNNY     91  77  63 NE6       29.96F HX 105
OMAHA EPPLEY   MOSUNNY   94  78  60 S18G24    29.93F HX 110
OFFUTT AFB     MOSUNNY   92  79  66 SE16      29.94F HX 109
MILLARD        PTSUNNY   92  79  65 S13G18    29.93F HX 109
LINCOLN        SUNNY     95  74  50 S18G25    29.94F HX 105
NEBRASKA CITY  SUNNY     91  80  70 S14G20    29.96S HX 108
BEATRICE       CLOUDY    96  73  47 S8        29.96S HX 105
FALLS CITY     SUNNY     95  78  58 S18G24    29.94F HX 111

...NORTHERN KANSAS...

CITY           SKY/WX    TMP DP  RH WIND       PRES   REMARKS
GOODLAND       SUNNY     99  57  24 E10       30.07F HX  98
HILL CITY      MOSUNNY  100  70  37 SE7       29.96F HX 107
NORTON         CLEAR     95  61  31 E13       29.99R HX  95
SMITH CENTER   SUNNY     81  72  74 E9        29.99S
BELOIT         PTSUNNY   84  73  70 N6        29.97R HX  91
HAYS           SUNNY    106  63  24 SW12G18   29.96F HX 108
RUSSELL        MOSUNNY  105  66  28 S16       29.94F HX 110
CONCORDIA      LGT RAIN  84  72  67 W17       30.00R
SALINA         SUNNY    106  66  27 S17G29    29.94F HX 111
TOPEKA         SUNNY    100  69  36 S15G22    29.96F HX 106



USA.gov is the U.S. government's official web portal to all federal, state and local government web resources and services.